Flight Information

DEPARTURE
COLORADO SPRINGS, CO
Elevation:
6187
Runways:
17R/35L - 11022x150 - ASPH-G
17L/35R - 13501x150 - CONC-G
13/31 - 8269x150 - ASPH-G
Active PE Departure:
13 - 17L - 17R
Current PE ATIS:
I
Altimeter:
29.96
Remarks:
SIMULTANEOUS APPROACHES TO PARALLEL RUNWAYS IN USE. V F R DEPARTURES CONTACT CLEARANCE DELIVERY, ADVISE ON COURSE HEADING, ALTITUDE, AND IF FLIGHT FOLLOWING IS REQUESTED.
ATIS:
125 719-596-7040
Clearance Delivery:
134.45
Ground:
121.7
Tower:
SPRINGS TOWER 119.9
DESTINATION
,
Elevation:
TPA:
1000 (est.)


6084.1 NM81° True-11° Var69° HDG

Flight Plan:
(click to file on line)

1. Type
2. Aircraft Identification
3. Aircraft Type / Special Equipment
4. True Airspeed
kts
5. Departure Airport
(ICAO code)
6. Arriving Airport
(ICAO code)
7. Cruising Altitude
ft
8. Alternate Airport
(ICAO code)
9. Route of Flight
10. Remarks


00:00:00 Departure ATIS: Destination ATIS:

Clearance Limit:
Route:
Altitude: Expect in minutes
Frequency:
Transponder: (7500 Hijack / 7600 Lost Comms / 7700 Emergency)


KCOS 221554Z 00000KT 10SM FEW250 M03/M10 A2996 RMK AO2 SLP183 T10331100 $
Time: 2021-01-22T15:54:00Z
1611333479
Winds: calm
Visibility: 10.0 sm
Clouds (AGL): FEW 25000
Temperature: -3.3 C
Dew Point: -10.0 C
Pressure: 29.958662 in Hgbr


Notes:

Data extracted from FAA Digital Chart Supplement. Effective: 0901Z Thursday, Dec 31, 2020 to 0901Z Thursday, Jan 28, 2021
Current ATIS data is provided courtisy of PilotEdge.